Temp
17 16 17 16 16 16 16 16 16 16 16 16 16 16 16 16 16 17 17 17 17 17 17 17 17 17 16 16 16 16 16 16 16 16 16 16 15 15 14 15 16 15 15
17 17 16 16 16 16 16 16 16 16 16 16 16 16 16 16 16 16 17 17 17 17 17 16 16 15 15 16 16 16 16 16 16 16 15 15 14 13 14 14 16 15 15
17 17 16 16 16 16 16 16 16 16 16 16 16 16 16 16 16 16 16 16 17 16 15 15 15 15 15 16 16 15 15 15 15 15 14 15 15 14 13 14 16 15 15
17 16 17 16 16 16 16 16 16 16 16 16 16 16 15 16 16 16 16 16 16 15 15 15 15 15 15 15 16 15 15 15 15 14 14 14 15 14 15 15 15 15 15
17 16 16 16 16 16 16 16 16 16 16 15 15 15 15 15 16 16 16 16 16 16 15 15 15 15 14 15 15 15 14 15 14 15 14 14 15 15 15 15 15 15 15
17 16 17 17 17 16 16 16 16 16 15 15 15 15 15 15 15 15 15 15 15 15 15 15 15 15 15 15 15 15 15 14 14 14 14 14 14 14 15 14 15 14 14
17 16 17 17 17 17 17 16 16 16 15 15 15 15 15 15 15 15 15 14 15 15 15 15 15 15 15 15 15 15 15 15 14 14 14 14 14 14 14 14 14 14 14
17 16 16 16 17 17 17 17 16 16 15 15 15 15 15 15 15 15 15 14 14 15 14 14 14 15 15 15 15 15 15 15 14 14 14 14 14 15 15 15 14 15 15
16 16 15 15 16 16 16 16 16 16 15 15 15 15 15 15 15 15 14 14 14 14 14 14 14 15 14 15 15 15 15 15 14 14 14 14 14 14 14 15 15 15 14
15 15 15 15 14 14 14 15 15 16 16 15 15 15 15 15 15 15 14 14 14 14 14 14 15 15 14 14 14 14 14 14 14 13 14 14 14 14 15 14 14 14 14
15 16 16 15 15 14 14 14 15 15 15 15 16 15 15 15 15 15 15 15 14 14 14 14 15 15 14 14 14 14 14 14 13 13 14 14 14 14 15 15 14 14 14
15 15 15 15 15 15 15 14 15 14 15 15 14 15 14 14 14 14 14 14 15 14 14 14 14 15 14 14 14 14 14 14 13 14 13 13 13 14 15 15 14 14 14
15 14 14 15 15 15 15 15 15 14 13 14 14 14 13 13 13 14 14 14 14 14 14 14 14 14 14 14 14 14 14 14 13 14 14 13 13 13 14 14 14 14 14
14 15 15 15 15 15 15 15 14 14 14 13 13 14 14 14 14 14 14 14 14 14 14 14 14 14 14 14 13 13 14 14 14 14 13 13 13 13 13 13 14 13 14
14 14 15 15 15 15 15 14 14 14 14 14 14 13 13 13 13 13 13 13 13 13 13 14 14 14 14 14 13 13 13 14 14 14 14 13 13 13 13 13 13 13 13
15 15 15 15 15 15 15 14 14 14 14 14 13 13 13 14 13 13 13 13 13 13 13 13 14 14 14 14 13 13 13 13 13 14 13 13 13 12 13 13 13 13 13
16 15 15 15 15 15 15 14 14 14 14 14 14 13 13 13 13 12 13 14 13 13 13 13 13 13 13 13 13 13 13 13 13 13 13 13 12 12 12 13 12 13 13
16 15 15 15 15 15 14 14 14 14 14 14 13 12 11 11 12 12 12 13 14 13 12 12 13 12 12 12 13 13 13 13 13 13 13 13 12 12 12 13 12 12 12
15 15 14 14 15 14 14 14 14 13 13 13 13 12 11 10 11 12 12 12 13 13 12 12 12 12 13 13 12 12 12 13 12 12 13 12 12 12 12 12 12 12 12
15 14 14 14 14 14 14 14 14 13 13 12 12 12 11 11 11 11 12 12 12 12 11 11 12 12 12 12 12 12 12 12 12 12 12 12 12 11 12 12 12 12 12
15 14 13 13 13 13 13 13 13 13 12 12 11 11 11 11 10 10 11 11 12 11 10 10 10 11 11 11 11 11 12 11 11 12 11 11 12 11 12 12 12 12 12
15 14 12 12 12 12 13 13 12 11 11 11 11 11 11 11 10 10 10 10 10 11 10 9 9 10 10 11 11 11 11 11 11 11 10 11 11 12 11 11 11 12 12
14 13 12 10 11 11 12 12 12 10 11 11 11 11 11 11 10 10 10 10 10 9 10 10 9 9 9 9 10 11 10 10 10 10 10 11 10 11 11 11 11 11 11
11 10 10 10 10 11 11 12 11 11 10 10 10 9 9 9 10 9 9 9 9 9 9 9 9 9 9 9 10 10 10 11 10 10 10 10 10 10 10 10 11 11 11
10 9 9 9 9 10 10 10 10 10 9 9 9 8 8 7 7 8 9 9 9 9 8 8 8 8 9 9 9 9 9 9 11 11 9 9 9 10 10 10 10 10 10
9 8 8 8 8 8 8 8 8 8 9 9 9 8 7 7 7 7 7 9 9 9 9 8 8 7 8 9 9 9 10 9 9 9 10 9 9 9 10 10 10 10 9
Height
1519 1520 1520 1521 1523 1525 1527 1528 1530 1531 1533 1534 1536 1538 1539 1540 1541 1542 1542 1543 1543 1544 1545 1546 1547 1548 1549 1549 1550 1551 1551 1552 1553 1554 1555 1555 1556 1557 1558 1558 1560 1561 1563
1518 1520 1520 1522 1523 1525 1527 1529 1531 1532 1533 1535 1537 1539 1541 1542 1542 1543 1544 1544 1545 1545 1546 1547 1548 1549 1550 1551 1551 1552 1553 1554 1556 1556 1557 1557 1558 1559 1560 1561 1562 1563 1565
1519 1520 1521 1522 1523 1525 1527 1529 1531 1533 1534 1536 1537 1539 1541 1542 1543 1543 1545 1546 1546 1547 1548 1548 1549 1550 1552 1553 1553 1554 1555 1557 1558 1559 1560 1560 1561 1561 1562 1564 1564 1566 1567
1520 1519 1521 1522 1524 1525 1527 1529 1531 1532 1534 1535 1537 1539 1541 1542 1544 1544 1545 1546 1547 1548 1549 1550 1551 1552 1553 1554 1555 1556 1557 1559 1561 1561 1562 1563 1563 1564 1564 1565 1566 1568 1569
1522 1522 1522 1523 1524 1526 1527 1529 1530 1532 1534 1535 1537 1538 1540 1542 1543 1545 1546 1547 1548 1549 1550 1551 1552 1553 1554 1555 1556 1557 1559 1561 1562 1564 1564 1565 1565 1566 1567 1567 1568 1569 1571
1522 1522 1523 1524 1525 1526 1527 1529 1530 1531 1533 1534 1536 1538 1539 1541 1543 1545 1545 1547 1548 1549 1550 1552 1553 1554 1555 1555 1556 1558 1560 1562 1564 1565 1567 1566 1567 1567 1568 1568 1570 1572 1573
1522 1522 1524 1524 1525 1526 1527 1528 1529 1530 1532 1533 1535 1536 1538 1540 1542 1544 1545 1546 1548 1549 1550 1552 1553 1554 1555 1556 1557 1559 1560 1562 1564 1565 1567 1567 1568 1568 1569 1570 1572 1573 1575
1522 1522 1523 1524 1525 1525 1526 1527 1528 1529 1530 1531 1533 1535 1536 1538 1540 1542 1544 1546 1547 1549 1550 1552 1553 1554 1555 1556 1557 1559 1561 1563 1565 1565 1566 1566 1568 1569 1570 1571 1573 1575 1576
1521 1522 1523 1523 1524 1525 1525 1526 1527 1528 1529 1530 1531 1533 1535 1537 1538 1540 1542 1545 1546 1548 1550 1551 1553 1554 1556 1557 1558 1559 1561 1563 1564 1565 1565 1566 1568 1570 1571 1572 1573 1574 1576
1519 1520 1522 1523 1524 1524 1524 1525 1526 1526 1527 1528 1530 1531 1533 1535 1537 1538 1540 1542 1544 1546 1548 1550 1552 1554 1555 1556 1558 1559 1560 1562 1563 1564 1565 1566 1567 1569 1571 1572 1573 1574 1575
1517 1518 1520 1521 1522 1523 1524 1523 1524 1525 1525 1526 1528 1529 1531 1532 1534 1536 1538 1541 1543 1545 1547 1549 1551 1552 1554 1555 1557 1558 1560 1561 1563 1564 1565 1566 1567 1569 1570 1572 1573 1573 1574
1514 1516 1517 1518 1519 1520 1521 1521 1522 1522 1523 1524 1526 1527 1529 1530 1532 1534 1536 1539 1541 1543 1545 1547 1549 1550 1552 1554 1555 1557 1559 1561 1563 1564 1565 1566 1567 1568 1569 1571 1572 1572 1572
1511 1513 1513 1514 1516 1517 1518 1519 1520 1521 1521 1522 1524 1526 1527 1529 1530 1532 1534 1536 1538 1540 1541 1544 1546 1547 1550 1551 1554 1555 1558 1560 1561 1564 1564 1565 1566 1567 1568 1569 1571 1571 1570
1508 1509 1510 1510 1512 1514 1515 1516 1517 1518 1519 1520 1521 1523 1525 1527 1528 1530 1530 1532 1535 1537 1539 1540 1542 1545 1547 1550 1551 1553 1556 1558 1559 1562 1563 1564 1565 1566 1567 1568 1569 1569 1569
1504 1504 1505 1506 1508 1509 1511 1513 1514 1515 1516 1517 1518 1519 1521 1522 1523 1525 1527 1529 1531 1533 1535 1537 1539 1541 1544 1547 1550 1550 1553 1556 1558 1560 1561 1562 1563 1564 1565 1566 1567 1568 1569
1500 1501 1501 1502 1504 1505 1506 1508 1510 1512 1513 1514 1515 1516 1517 1518 1520 1521 1523 1525 1528 1530 1532 1533 1536 1537 1540 1544 1546 1549 1551 1553 1556 1558 1558 1559 1560 1561 1563 1563 1565 1566 1568
1495 1498 1498 1499 1500 1502 1503 1504 1506 1507 1509 1510 1511 1512 1513 1514 1515 1517 1518 1521 1523 1526 1528 1530 1532 1534 1537 1539 1542 1546 1548 1550 1553 1555 1555 1556 1557 1559 1560 1561 1563 1564 1566
1493 1493 1495 1496 1497 1498 1499 1501 1502 1503 1504 1506 1507 1509 1510 1510 1511 1513 1514 1516 1519 1520 1523 1526 1528 1530 1532 1534 1537 1541 1544 1545 1549 1551 1552 1552 1554 1556 1558 1559 1561 1563 1565
1488 1490 1490 1492 1494 1495 1496 1496 1498 1499 1500 1501 1502 1504 1506 1507 1507 1508 1509 1511 1513 1515 1518 1520 1523 1525 1528 1530 1533 1536 1539 1541 1541 1546 1548 1549 1551 1554 1556 1557 1559 1560 1562
1485 1486 1486 1487 1489 1490 1491 1492 1493 1494 1495 1497 1497 1499 1501 1502 1504 1504 1505 1507 1508 1510 1511 1514 1517 1520 1522 1525 1528 1530 1533 1536 1538 1541 1543 1544 1547 1549 1552 1555 1556 1558 1560
1480 1482 1483 1482 1484 1485 1486 1487 1487 1489 1490 1492 1493 1494 1495 1498 1500 1501 1501 1502 1504 1505 1507 1510 1512 1514 1517 1520 1521 1523 1526 1530 1532 1535 1536 1539 1540 1544 1547 1550 1553 1555 1557
1475 1478 1479 1479 1480 1480 1481 1482 1483 1483 1485 1487 1489 1490 1490 1492 1495 1497 1497 1498 1499 1501 1503 1505 1507 1509 1512 1515 1518 1517 1518 1524 1524 1529 1531 1533 1537 1539 1541 1545 1548 1550 1554
1472 1474 1476 1477 1477 1477 1477 1478 1478 1479 1480 1482 1484 1485 1485 1487 1489 1491 1493 1494 1495 1496 1498 1500 1502 1505 1506 1509 1511 1515 1514 1514 1518 1522 1525 1527 1531 1536 1533 1540 1543 1545 1549
1471 1473 1474 1475 1475 1474 1473 1474 1474 1475 1477 1479 1479 1480 1480 1482 1484 1486 1489 1489 1490 1491 1492 1494 1497 1498 1502 1503 1506 1507 1508 1509 1513 1515 1519 1522 1525 1529 1532 1536 1539 1539 1542
1475 1475 1475 1475 1473 1471 1469 1470 1470 1472 1474 1474 1475 1476 1477 1477 1479 1481 1484 1485 1485 1485 1486 1488 1490 1492 1494 1496 1498 1502 1504 1504 1505 1508 1511 1515 1520 1522 1526 1530 1531 1534 1536
1479 1477 1476 1475 1473 1470 1469 1467 1467 1468 1470 1470 1471 1473 1473 1474 1475 1477 1478 1478 1478 1478 1479 1481 1483 1485 1488 1489 1491 1494 1496 1498 1500 1502 1502 1508 1512 1510 1517 1521 1525 1526 1531
Wind_Speed
3 4 7 9 11 10 9 8 8 7 7 6 6 6 7 9 10 10 9 8 6 5 4 4 4 5 5 6 7 10 10 11 11 12 12 13 14 15 15 14 18 22 18
5 1 7 9 10 10 9 8 7 6 6 5 5 5 7 7 8 9 8 8 7 6 6 6 6 7 9 8 9 11 10 10 10 10 10 13 15 14 13 13 17 20 19
4 2 9 8 8 9 8 8 7 6 5 5 5 6 7 6 6 7 7 7 7 7 8 7 8 8 8 8 8 9 11 12 13 13 12 9 12 13 13 13 15 17 17
6 7 7 7 6 7 7 7 7 7 6 5 6 6 6 6 6 6 5 5 6 7 6 6 6 7 6 4 4 7 10 14 18 16 11 5 9 11 12 12 14 15 15
8 5 5 5 5 5 5 6 7 7 7 7 7 7 8 7 6 7 4 4 5 6 7 6 7 6 4 3 4 7 9 13 15 14 9 5 8 10 12 13 15 15 15
7 4 4 4 3 3 3 6 6 7 7 7 8 9 9 9 9 9 5 6 6 6 6 6 6 6 5 4 5 8 9 12 13 13 9 7 7 14 10 17 12 12 13
6 4 4 1 2 2 4 5 5 8 8 9 8 9 10 11 10 10 7 9 9 8 7 6 6 5 5 5 6 8 9 10 12 9 9 10 9 12 14 15 14 13 9
7 4 5 3 4 5 5 7 8 8 9 10 10 9 10 11 12 11 9 10 11 9 8 7 7 5 6 6 7 8 9 11 11 7 10 10 10 11 11 10 8 6 4
7 6 4 4 4 5 5 6 7 9 11 10 11 12 11 11 11 13 11 12 12 11 8 8 9 7 8 7 7 8 9 12 10 8 12 12 12 11 9 6 5 4 4
10 9 6 5 5 5 7 7 8 9 10 12 12 13 14 13 13 13 14 14 13 12 10 10 9 10 11 10 9 7 8 12 13 11 11 14 13 10 6 4 4 5 6
14 10 9 9 8 7 8 12 9 10 11 11 13 13 13 15 15 15 16 15 15 14 13 12 11 11 12 12 12 8 8 9 8 9 13 11 11 9 8 9 7 8 9
14 9 11 11 12 12 11 11 9 9 10 9 7 11 15 14 14 16 15 16 17 16 16 15 15 13 15 14 14 12 11 12 10 8 10 13 12 10 11 11 10 11 11
12 14 14 13 12 12 13 13 11 9 11 9 11 9 11 12 11 15 18 18 18 18 18 18 18 18 17 17 16 15 12 15 13 14 13 13 11 11 12 12 12 10 9
18 19 18 16 14 13 13 14 12 12 12 13 11 14 17 13 17 21 21 23 23 21 22 21 22 22 20 19 16 12 14 17 15 16 14 15 16 16 15 13 12 7 8
20 21 16 16 14 14 14 14 14 14 14 15 15 13 14 21 19 19 23 23 23 20 23 23 25 25 24 22 22 19 15 18 13 17 18 17 17 17 17 14 11 9 14
19 19 16 16 15 15 14 14 14 14 15 15 15 17 19 19 21 25 20 20 20 22 21 23 25 27 27 25 24 24 21 16 17 19 18 19 18 16 15 14 13 13 18
19 19 19 18 17 16 15 15 16 16 16 16 17 18 19 18 19 18 19 24 21 22 23 24 23 26 28 29 27 28 24 22 24 22 22 20 19 17 16 15 16 16 19
19 21 21 20 19 17 16 16 16 17 18 17 17 17 19 19 20 19 20 19 20 26 24 23 25 24 29 28 30 32 30 27 23 24 21 23 23 18 18 17 17 18 17
23 22 26 24 21 19 18 17 17 17 18 17 17 17 18 19 20 19 19 19 19 21 25 25 25 28 30 29 30 30 33 32 30 23 26 24 23 20 19 18 19 17 16
26 25 25 26 23 22 20 18 17 17 19 18 18 19 18 21 20 20 19 18 17 19 20 25 22 28 29 29 31 32 33 33 28 28 25 24 22 19 18 19 21 22 18
28 26 25 27 25 22 20 18 18 17 17 18 19 19 19 20 20 20 19 19 17 17 20 18 22 28 26 29 36 33 36 33 35 34 30 28 28 23 23 21 20 23 23
28 27 27 28 25 22 20 17 16 17 16 17 19 19 20 21 22 23 22 20 19 18 17 21 17 22 27 23 28 23 25 31 36 36 33 30 31 28 27 27 24 25 27
26 26 25 23 22 20 19 17 17 19 19 16 15 17 17 21 22 23 23 21 20 20 21 21 21 22 23 24 26 29 8 14 22 38 38 34 36 33 27 33 28 22 26
16 16 18 21 20 17 17 15 15 13 15 14 14 13 13 15 19 22 22 20 20 22 23 24 24 24 25 28 26 32 30 21 17 19 36 36 30 34 32 35 31 25 23
7 12 15 14 13 12 13 11 11 13 13 12 11 10 15 16 18 18 20 21 21 23 27 28 27 27 28 30 33 32 36 24 27 25 23 38 41 39 38 39 36 29 26
11 9 9 10 10 10 10 11 11 12 14 15 15 17 19 20 20 20 23 22 19 22 24 26 30 29 29 32 33 33 36 41 32 27 26 38 43 43 43 40 39 35 32
Wind_Direction
140 213 151 131 132 142 149 137 131 142 151 149 145 125 124 123 120 118 113 115 119 122 133 139 128 112 97 91 114 123 123 120 119 120 120 117 113 107 102 99 116 112 110
142 126 163 143 134 141 158 157 150 142 151 160 162 151 151 136 129 127 119 115 116 117 118 120 115 107 108 94 114 120 119 115 109 107 111 118 116 112 108 112 123 122 117
155 234 164 152 152 147 153 165 174 174 172 170 176 174 168 165 150 141 131 126 125 126 121 127 134 140 120 101 112 119 118 104 98 96 87 105 128 124 121 119 125 128 127
102 118 152 156 163 176 174 180 179 182 186 187 186 183 187 181 172 158 149 143 140 142 155 159 155 155 142 118 131 138 127 114 98 88 88 25 132 132 129 132 131 129 130
140 165 144 136 173 187 199 209 205 204 201 204 207 204 202 199 195 184 180 181 168 160 171 177 177 180 193 225 186 169 147 129 113 95 132 202 138 138 136 131 130 129 128
163 206 159 129 131 152 188 221 229 224 214 213 218 217 215 217 216 216 214 205 192 180 188 192 199 210 224 211 190 179 165 150 121 124 141 196 144 136 128 148 130 132 132
156 211 191 183 252 241 233 230 220 228 236 231 225 224 221 223 221 214 223 211 205 201 202 196 195 199 198 191 186 181 178 164 130 140 186 204 170 135 130 126 120 124 123
208 184 261 277 280 272 260 247 238 234 232 238 239 236 226 222 222 223 223 214 215 212 212 212 200 199 187 183 183 177 175 163 143 188 216 215 194 163 149 148 141 146 155
179 197 248 301 291 278 270 263 260 249 245 244 240 238 236 232 226 222 225 222 218 217 221 216 213 204 191 185 175 180 177 169 161 205 238 189 171 157 156 166 173 189 204
219 225 218 232 241 280 299 274 264 265 258 249 245 238 237 237 234 228 225 222 221 220 228 219 220 211 197 188 175 169 178 180 188 218 190 180 177 175 182 212 250 261 262
228 238 247 242 239 247 244 273 278 270 265 258 248 242 240 237 236 236 234 228 226 224 229 221 224 215 210 200 194 189 192 180 205 223 206 189 194 199 214 248 278 282 269
234 231 261 250 248 252 257 266 276 283 276 260 265 261 244 243 240 242 248 243 235 230 230 227 221 222 216 216 209 205 194 176 212 223 216 208 213 228 235 252 275 281 271
229 226 237 262 256 257 260 260 261 256 283 273 223 226 268 246 233 238 245 247 242 231 227 229 224 221 218 221 224 220 203 178 199 241 261 247 235 241 240 252 270 273 254
237 242 248 256 252 256 253 261 260 252 237 248 246 231 208 232 243 238 234 237 241 237 233 228 228 226 221 219 227 229 222 192 184 230 238 239 253 261 256 257 264 241 202
240 252 244 246 251 249 251 254 260 262 255 247 248 237 227 217 230 233 235 237 235 239 237 234 231 233 228 221 211 224 243 198 194 224 228 237 251 260 251 251 234 215 182
237 240 235 242 245 249 256 257 260 261 262 256 245 248 238 242 234 239 241 236 239 237 240 237 234 236 234 227 221 210 228 208 212 221 237 238 247 252 241 238 213 200 191
245 238 238 238 239 244 251 256 264 267 264 263 257 249 253 245 238 246 246 238 235 236 238 237 239 239 237 235 227 215 214 218 220 219 234 243 243 243 233 227 208 197 197
247 235 242 242 240 242 249 258 262 264 267 267 260 245 245 251 246 241 249 254 249 242 236 236 239 239 237 238 232 224 219 219 221 219 226 239 241 239 231 221 210 204 206
251 237 240 242 241 241 247 258 265 265 264 260 256 250 235 247 252 248 250 255 252 247 241 238 237 237 234 240 235 235 230 230 216 222 219 234 245 237 228 224 216 213 209
245 246 243 247 242 242 249 260 269 264 260 251 246 248 247 244 247 255 254 257 257 246 245 238 232 242 246 237 241 236 236 238 217 214 218 231 242 234 227 225 226 219 212
246 240 236 243 244 242 248 258 263 267 261 248 242 246 247 247 246 248 254 256 254 251 241 246 238 236 247 246 249 241 237 242 222 218 208 218 224 226 226 228 226 225 220
242 238 234 242 242 243 249 255 255 260 253 245 248 247 246 247 248 251 251 252 257 259 252 239 237 236 239 241 229 226 223 225 226 219 210 207 222 224 225 233 231 224 222
241 247 238 233 239 242 251 254 246 243 258 260 248 247 248 249 247 250 252 253 253 251 253 252 244 237 244 242 238 228 217 214 209 219 212 213 215 223 221 226 230 221 220
246 228 223 231 236 242 251 254 250 243 242 252 257 259 264 257 242 246 251 251 254 255 251 251 247 244 235 239 240 236 233 232 204 207 212 217 216 225 217 220 226 218 218
243 242 244 243 244 245 252 253 246 243 248 251 245 239 251 248 259 253 248 255 259 256 252 247 245 242 242 239 237 236 237 231 217 216 209 219 222 219 224 226 228 226 218
309 296 280 262 256 254 253 263 257 262 261 256 250 239 241 245 241 244 258 267 270 264 257 250 246 242 240 243 243 240 239 236 235 215 216 213 214 214 218 226 226 220 224